Flag for Russia Weather past 2 weeks in Kemerovo, Russia

Now
64 °F

More clouds than sun.


Feels Like: 64 °F
Forecast: 54 / 69 °F
Wind: 10 mph from Northwest

Location: Kemerovo

Current Time: Jul 31, 2014 at 12:49:48 PM

Latest Report: Jul 31, 2014 at 12:30 PM


Visibility: N/A

Pressure: 29.92 "Hg

Humidity: 60%

Dew point: 50 °F

Location of KemerovoLocation

Historic Weather in Kemerovo — Graph

°F

Kemerovo temperature yesterday

Maximum temperature yesterday: 68 °F (at 3:00 PM)
Minimum temperature yesterday: 52 °F (at 6:00 AM)
Average temperature yesterday: 60 °F

Past Weeks' High & Low Weather Summary

 TemperatureHumidityPressure
High88 °F (Jul 21, 3:00 PM)100% (Jul 17, 7:30 AM)29.92 "Hg (Jul 17, 7:30 AM)
Low50 °F (Jul 26, 4:00 AM)33% (Jul 21, 7:00 PM)29.30 "Hg (Jul 29, 6:30 AM)
Average65 °F76%29.65 "Hg
* Reported Jul 16 11:00 AM — Jul 31 11:30 AM, Kemerovo, Weather by CustomWeather, © 2014

Note: Actual official high and low records may vary slightly from our data, if they occured in-between our weather recording intervals... More about our weather records

Advertising

Kemerovo weather history for previous 24 hours

 ConditionsComfort  
Time TempWeatherWind HumidityBarometerVisibility
11:30 AM
Jul 31
61 °FMostly cloudy.10 mph63%29.92 "HgN/A
11:00 AM61 °FMostly cloudy.10 mph63%29.92 "HgN/A
10:30 AM61 °FMostly cloudy.6 mph63%29.92 "HgN/A
10:00 AM61 °FMore clouds than sun.8 mph63%29.92 "HgN/A
9:30 AM59 °FMore clouds than sun.8 mph82%29.92 "HgN/A
9:00 AM59 °FMore clouds than sun.6 mph82%29.92 "HgN/A
8:30 AM55 °FMore clouds than sun.6 mph94%29.89 "HgN/A
8:00 AM55 °FMore clouds than sun.6 mph94%29.89 "HgN/A
7:30 AM54 °FMore clouds than sun.6 mph94%29.89 "HgN/A
7:00 AM54 °FMore clouds than sun.6 mph94%29.89 "HgN/A
6:30 AM52 °FMore clouds than sun.6 mph94%29.89 "HgN/A
6:00 AM52 °FMostly cloudy.3 mph94%29.89 "HgN/A
5:30 AM52 °FMostly cloudy.3 mph94%29.89 "HgN/A
5:00 AM52 °FClear.1 mph94%29.89 "Hg10 mi
4:30 AM54 °FClear.3 mph88%29.89 "Hg10 mi
4:00 AM54 °FClear.1 mph88%29.89 "Hg10 mi
3:30 AM55 °FClear.3 mph88%29.86 "Hg10 mi
3:00 AM55 °FClear.3 mph88%29.86 "Hg10 mi
2:30 AM55 °FClear.6 mph94%29.86 "Hg10 mi
2:00 AM55 °FClear.6 mph94%29.86 "Hg10 mi
1:30 AM55 °FClear.3 mph88%29.86 "Hg10 mi
12:30 AM55 °FClear.6 mph88%29.86 "Hg10 mi
12:00 AM55 °FMostly cloudy.6 mph88%29.86 "HgN/A
11:30 PM
Jul 30
57 °FMostly cloudy.6 mph88%29.86 "HgN/A
11:00 PM57 °FMostly cloudy.10 mph88%29.86 "HgN/A
10:30 PM59 °FMostly cloudy.6 mph82%29.86 "HgN/A
10:00 PM59 °FMore clouds than sun.6 mph82%29.86 "HgN/A
9:30 PM61 °FMore clouds than sun.8 mph77%29.83 "HgN/A
9:00 PM61 °FMore clouds than sun.6 mph77%29.83 "HgN/A
8:30 PM63 °FMore clouds than sun.8 mph73%29.83 "HgN/A
8:00 PM63 °FMore clouds than sun.8 mph73%29.83 "HgN/A
7:30 PM63 °FCloudy.8 mph68%29.80 "HgN/A
7:00 PM63 °FCloudy.8 mph68%29.80 "HgN/A
6:30 PM66 °FCloudy.13 mph52%29.80 "HgN/A
6:00 PM66 °FMore clouds than sun.10 mph52%29.80 "HgN/A
5:30 PM68 °FMore clouds than sun.10 mph46%29.80 "HgN/A
5:00 PM68 °FMore clouds than sun.13 mph46%29.77 "HgN/A
4:30 PM68 °FMore clouds than sun.15 mph46%29.77 "HgN/A
4:00 PM68 °FMore clouds than sun.13 mph46%29.77 "HgN/A
3:30 PM68 °FMore clouds than sun.10 mph53%29.77 "HgN/A
3:00 PM68 °FMore clouds than sun.13 mph53%29.77 "HgN/A
2:30 PM66 °FMore clouds than sun.13 mph52%29.77 "HgN/A
2:00 PM66 °FMore clouds than sun.15 mph52%29.77 "HgN/A
1:30 PM64 °FMore clouds than sun.13 mph56%29.77 "HgN/A
1:00 PM64 °FMore clouds than sun.15 mph56%29.77 "HgN/A
12:30 PM64 °FMostly cloudy.13 mph60%29.77 "HgN/A
12:00 PM64 °FMore clouds than sun.13 mph60%29.74 "HgN/A
Weather by CustomWeather, © 2014

See weather overviewHow to use our weather pages